Regional Weather Roundup
Issued by NWS

Home | Current Version | Previous Version | Text Only | Print | Product List | Glossary Off
Versions: 1 2 3 4 5 6 7 8 9 10 11 12 13 14 15 16 17 18 19 20 21 22 23 24 25 26 27 28 29 30 31 32 33 34 35 36 37 38 39 40 41 42 43 44 45 46 47 48 49 50

000
ASUS43 KLOT 290506
RWRIL

ILLINOIS REGIONAL WEATHER ROUNDUP
NATIONAL WEATHER SERVICE CHICAGO/ROMEOVILLE IL
1200 AM CDT FRI AUG 29 2014

NOTE: "FAIR" INDICATES FEW OR NO CLOUDS BELOW 12,000 FEET WITH NO
SIGNIFICANT WEATHER AND/OR OBSTRUCTIONS TO VISIBILITY.

* THESE STATIONS ARE NOT UNDER NWS QUALITY CONTROL. THEY ALSO MAY NOT
  REPORT WEATHER SUCH AS PRECIPITATION OR FOG.

ILZ001-002-007-009-015-016-024-290600-
NORTHWEST ILLINOIS

CITY           SKY/WX    TMP DP  RH WIND       PRES   REMARKS
MOLINE         PTCLDY    69  66  90 SE7       29.97F
STERLING*      CLOUDY    70  64  83 SE7       30.00S
SAVANNA*       MOCLDY    67  65  90 SE3       29.99F
$$

ILZ003-004-008-010-011-017-018-290600-
NORTH CENTRAL ILLINOIS

CITY           SKY/WX    TMP DP  RH WIND       PRES   REMARKS
ROCKFORD       LGT RAIN  66  62  87 SE8       30.02F
FREEPORT*      RAIN      63  62  95 E6        30.03S
ROCHELLE*      RAIN      67  65  92 SE6       30.02F
DE KALB*       CLOUDY    65  64  94 SE6       30.04F FOG
PERU*          CLOUDY    69  67  94 SE5       30.02S
$$

ILZ005-006-012>014-019>023-290600-
NORTHEAST ILLINOIS

CITY           SKY/WX    TMP DP  RH WIND       PRES   REMARKS
CHICAGO-OHARE  CLOUDY    70  63  78 SE8       30.03F
CHICAGO-MIDWAY CLOUDY    74  67  78 SE8       30.03F
AURORA         CLOUDY    69  65  86 SE5       30.03F FOG
LANSING*       LGT RAIN  70  66  85 SE7       30.04F
JOLIET*        CLOUDY    69  65  88 SE5       30.03F
WAUKEGAN       CLOUDY    69  65  86 E6        30.03F
DUPAGE AIRPORT CLOUDY    69  65  86 SE6       30.03F
KANKAKEE*      DRIZZLE   71  67  89 SE7       30.05F
WHEELING       CLOUDY    71  64  78 SE5       30.04F
MORRIS*        CLOUDY    69  69 100 SE5       30.01F FOG
ROMEOVILLE*    CLOUDY    69  67  93 SE7       30.03F
NORTHERLY ISL    N/A     72  65  78 S7          N/A
$$

LMZ740>746-290600-
SOUTHERN LAKE MICHIGAN

STATION/POSITION SKY/WX   TEMP    WIND        PRES    VSBY  WAVE
                          AIR SEA DIR/SP/G                  HT/PER
                          (F)     (DEG/KT/KT) (MB)    (MI)  (FT/S)
SOUTHERN BUOY              69 69  120/ 16/ 17 1017.5F         2/ 4
WAUKEGAN HARBOR            72     150/ 10/ 11   N/A
HARRISON CRIB              72     150/  8/ 12   N/A
BURNHAM HARBOR             72     150/  8       N/A
CALUMET HARBOR             73     170/  6/ 10 1016.4R
MICHIGAN CITY              72     120/  8/ 11   N/A
MICHIGAN CITY 6N           73 72  150/ 10/ 12   N/A           1/ 3
ST. JOSEPH                 70 71  120/ 12/ 14   N/A           1/ 2
$$

ILZ025>027-034>036-040-047-049-050-058-095>099-290600-
WEST-CENTRAL ILLINOIS

CITY           SKY/WX    TMP DP  RH WIND       PRES   REMARKS
QUINCY         PTCLDY    72  68  87 SE10      29.97S
GALESBURG*     CLOUDY    70  69  98 SE3       29.99F
MACOMB*        MOCLDY    70  69  96 SE6       30.00F
JACKSONVILLE*  CLOUDY    73  71  95 E7        30.00F
PITTSFIELD*    MOCLDY    73  68  84 SE6       29.99S
$$

ILZ028>032-037-038-041>044-048-051>054-059>061-290600-
CENTRAL ILLINOIS

CITY           SKY/WX    TMP DP  RH WIND       PRES   REMARKS
PONTIAC        LGT RAIN  72  70  94 SE7       30.02F
DECATUR        LGT RAIN  71  69  93 E6        30.03F
PEORIA         CLOUDY    72  68  87 SE6       29.99F
LACON*         CLOUDY    70  67  89 CALM      29.99F
LINCOLN*       CLOUDY    72  70  92 E3        29.97F
SPRINGFIELD    CLOUDY    71  69  93 E5        30.00F
TAYLORVILLE    CLOUDY    70  68  94 E3        30.01F
$$

ILZ033-039-045-046-055>057-062-063-290600-
EAST-CENTRAL ILLINOIS

CITY           SKY/WX    TMP DP  RH WIND       PRES   REMARKS
CHAMPAIGN      CLOUDY    73  69  87 E7        30.04F
DANVILLE*      CLOUDY    70  68  91 CALM      30.03S
RANTOUL*       RAIN      75  68  79 N5        30.06S
MATTOON        CLOUDY    74  70  87 N9        30.03S
PARIS*         CLOUDY    71  69  93 E3        30.05S
$$

ILZ079-100>102-290600-
SOUTHWEST ILLINOIS

CITY           SKY/WX    TMP DP  RH WIND       PRES   REMARKS
BELLEVILLE     CLOUDY    74  74 100 E5        29.98F
SPARTA*        MOCLDY    73  72  95 E6        30.01R
$$

ILZ064>066-069>071-074>076-080>082-084>086-088>090-092>094-290600-
SOUTH-CENTRAL ILLINOIS

CITY           SKY/WX    TMP DP  RH WIND       PRES   REMARKS
CARBONDALE     MOCLDY    73  70  90 CALM      30.00S
CAIRO*         PTCLDY    74  70  87 CALM      29.99S
EFFINGHAM*     RAIN      73  69  87 CALM      30.03F
MARION         MOCLDY    75  72  88 E5        30.00F
MT. VERNON     MOCLDY    72  68  88 NE3       30.02S
CENTRALIA*     CLOUDY    72  69  91 SE5       30.00F FOG
SALEM*           N/A     75  74  96 CALM      30.01F FOG
METROPOLIS*      N/A     71  71 100 CALM      29.99S FOG
$$

ILZ067-068-072-073-078-083-087-091-290600-
SOUTHEAST ILLINOIS

CITY           SKY/WX    TMP DP  RH WIND       PRES   REMARKS
LAWRENCEVILLE  CLOUDY    75  72  90 N3        30.02F
FLORA*         CLOUDY    74  72  92 CALM      30.02S
FAIRFIELD*     MOCLDY    75  73  94 CALM      30.01S FOG
HARRISBURG*    CLOUDY    73  73 100 CALM      30.01F FOG
ROBINSON*      MOCLDY    74  73  96 CALM      30.04S
CARMI*         MOCLDY    73  73  98 CALM      30.00F FOG
$$

ABBREVIATIONS USED IN REMARKS
   TC - TEMPERATURE IN CELSIUS
  WCI - WIND CHILL INDEX
   HX - HEAT INDEX
  VSB - VISIBILITY
$$




USA.gov is the U.S. government's official web portal to all federal, state and local government web resources and services.